Home   Weather   Mendrisio   Past weeks

Flag for Switzerland Past Weather in Mendrisio, Ticino, Switzerland — Yesterday and Last 2 Weeks

Now
64 °F

Mild.


Feels Like: 64 °F
Forecast: 56 / 70 °F
Wind: 2 mph from Southwest

Location: Stabio

Current Time: Aug 31, 2016 at 8:29:45 AM

Latest Report: Aug 31, 2016 at 7:00 AM


Visibility: N/A

Pressure: 30.15 "Hg

Humidity: 97%

Dew Point: 63 °F

Location of MendrisioLocation

Past Weather in Mendrisio — Graph

°F

Mendrisio Temperature Yesterday

Maximum temperature yesterday: 73 °F (at 5:00 PM)
Minimum temperature yesterday: 64 °F (at 7:00 AM)
Average temperature yesterday: 68 °F

High & Low Weather Summary for the Past Weeks

 TemperatureHumidityPressure
High85 °F (Aug 28, 4:00 PM)100% (Aug 20, 1:00 PM)30.32 "Hg (Aug 20, 1:00 PM)
Low54 °F (Aug 23, 7:00 AM)31% (Aug 22, 1:00 AM)29.75 "Hg (Aug 17, 6:00 PM)
Average69 °F80%30.06 "Hg
* Reported Aug 16 7:00 AM — Aug 31 7:00 AM, Mendrisio, Weather by CustomWeather, © 2016

Note: Actual official high and low records may vary slightly from our data, if they occured in-between our weather recording intervals... More about our weather records

Advertising

Mendrisio Weather History for the Previous 24 Hours

Scroll right to see more
 ConditionsComfort  
Time TempWeatherWind HumidityBarometerVisibility
7:00 AM
Wed, Aug 31
64 °FMild.2 mph97%30.15 "HgN/A
6:00 AM63 °FMild.2 mph98%30.15 "HgN/A
5:00 AM64 °FMild.2 mph97%30.15 "HgN/A
4:00 AM64 °FMild.2 mph97%30.16 "HgN/A
3:00 AM63 °FMild.2 mph98%30.16 "HgN/A
2:00 AM64 °FMild.1 mph96%30.16 "HgN/A
1:00 AM64 °FMild.1 mph93%30.17 "HgN/A
12:00 AM64 °FMild.2 mph96%30.16 "HgN/A
11:00 PM
Tue, Aug 30
65 °FMild.2 mph93%30.16 "HgN/A
10:00 PM66 °FMild.No wind94%30.16 "HgN/A
9:00 PM66 °FMild.No wind95%30.15 "HgN/A
8:00 PM68 °FMild.1 mph86%30.13 "HgN/A
7:00 PM70 °FMild.2 mph77%30.11 "HgN/A
6:00 PM73 °FMild.1 mph65%30.11 "HgN/A
5:00 PM73 °FMild.No wind69%30.12 "HgN/A
4:00 PM73 °FMild.1 mph76%30.14 "HgN/A
3:00 PM72 °FMild.2 mph71%30.15 "HgN/A
2:00 PM71 °FMild.2 mph76%30.16 "HgN/A
1:00 PM69 °FMild.1 mph90%30.16 "HgN/A
12:00 PM70 °FMild.2 mph80%30.15 "HgN/A
11:00 AM69 °FMild.1 mph87%30.14 "HgN/A
10:00 AM68 °FMild.1 mph82%30.12 "HgN/A
9:00 AM66 °FMild.1 mph97%30.12 "HgN/A
8:00 AM65 °FMild.1 mph98%30.13 "HgN/A
Weather by CustomWeather, © 2016

See weather overviewHow to use our weather pages